Stations météo

réclame
Mon MeteoGroup
Cap-de-la Heve, France (7028): Température de l'air & dewpoint: 13.06.2018 20:00:00 - 19.06.2018 20:00:00 (CEST)Cap-de-la Heve, France (7028): Température de l'air 5cm: 13.06.2018 20:00:00 - 19.06.2018 20:00:00 (CEST)Cap-de-la Heve, France (7028): Vitesse du vent & gusts: 13.06.2018 20:00:00 - 19.06.2018 20:00:00 (CEST)Cap-de-la Heve, France (7028): Direction du vent: 13.06.2018 20:00:00 - 19.06.2018 20:00:00 (CEST)Cap-de-la Heve, France (7028): reduced air pressure: 13.06.2018 20:00:00 - 19.06.2018 20:00:00 (CEST)Cap-de-la Heve, France (7028): visibility: 13.06.2018 20:00:00 - 19.06.2018 20:00:00 (CEST)Cap-de-la Heve, France (7028): Quantités de précipitations: 13.06.2018 20:00:00 - 19.06.2018 20:00:00 (CEST)
Date & Time tt [°C] td [°C] tt 5cm [°C] ff [km/h] ff [knt] fx [km/h] fx [knt] dd ppp [hPa] vv [km] rr [mm]
19.06.2018 20:00:00 17,1 14,6 22,0 14 8 22 12 N 1025,0 20 0,0
19.06.2018 19:00:00 17,7 14,8 23,1 12 7 21 11 N 1025,2 - 0,0
19.06.2018 18:00:00 18,8 15,1 26,5 12 6 19 10 N 1025,4 - 0,0
19.06.2018 17:00:00 19,5 14,9 27,6 8 4 12 7 NW 1025,7 20 0,0
19.06.2018 16:00:00 19,5 14,1 26,9 5 3 11 6 W 1026,0 - 0,0
19.06.2018 15:00:00 19,2 14,7 26,5 8 4 14 8 W 1026,2 - 0,0
19.06.2018 14:00:00 18,9 15,0 26,2 10 5 17 9 W 1026,4 12 0,0
19.06.2018 13:00:00 18,6 16,0 21,1 10 5 22 12 WSW 1026,5 - 0,0
19.06.2018 12:00:00 16,9 15,9 18,9 11 6 28 15 SW 1026,4 - 0,0
19.06.2018 11:00:00 16,3 15,7 18,3 10 5 25 14 SW 1026,3 8 0,0
19.06.2018 10:00:00 15,9 15,3 17,1 9 5 26 14 SW 1026,4 - 0,0
19.06.2018 09:00:00 15,4 14,8 17,2 10 6 27 15 SW 1026,3 - 0,2
19.06.2018 08:00:00 15,4 14,8 16,9 11 6 24 13 WSW 1026,0 0,5 0,0
19.06.2018 07:00:00 15,1 14,5 16,4 10 6 24 13 WSW 1025,8 - 0,2
19.06.2018 06:00:00 15,0 14,4 16,3 11 6 32 18 W 1025,7 - 0,0
19.06.2018 05:00:00 14,8 14,0 16,4 23 12 38 21 W 1025,3 - 0,0
19.06.2018 04:00:00 14,9 14,1 16,5 26 14 40 22 W 1025,1 - 0,0
19.06.2018 03:00:00 15,3 14,2 16,8 16 9 36 19 W 1025,2 - 0,0
19.06.2018 02:00:00 15,7 14,7 16,9 23 12 35 19 W 1025,1 25 0,0
19.06.2018 01:00:00 15,8 14,7 16,8 13 7 29 16 WSW 1025,2 - 0,0
19.06.2018 00:00:00 15,9 14,1 17,0 18 10 29 16 W 1025,2 - 0,0
18.06.2018 23:00:00 16,0 13,8 17,4 17 9 31 17 W 1025,1 25 0,0
18.06.2018 22:00:00 16,2 13,3 18,0 17 9 33 18 W 1024,6 - 0,0
18.06.2018 21:00:00 16,9 13,0 20,2 15 8 34 18 WNW 1024,1 - 0,0
18.06.2018 20:00:00 17,8 13,3 22,2 13 7 29 16 WNW 1023,8 25 0,0
18.06.2018 19:00:00 18,4 12,8 25,1 14 7 23 13 WNW 1023,5 - 0,0
18.06.2018 18:00:00 17,9 12,1 28,0 11 6 23 12 WNW 1023,7 - 0,0
18.06.2018 17:00:00 17,7 12,6 29,5 11 6 21 12 W 1023,8 25 0,0
18.06.2018 16:00:00 17,8 13,1 25,0 16 9 31 17 W 1024,1 - 0,0
18.06.2018 15:00:00 16,8 12,7 21,6 21 11 37 20 W 1024,2 - 0,0
18.06.2018 14:00:00 16,0 13,1 20,4 28 15 41 22 W 1024,0 - 0,0
18.06.2018 13:00:00 15,9 12,8 19,3 20 11 35 19 W 1023,7 - 0,0
18.06.2018 12:00:00 14,7 12,4 18,6 22 12 42 23 W 1023,6 - 0,0
18.06.2018 11:00:00 15,2 12,3 16,5 26 14 46 25 W 1022,9 25 0,0
18.06.2018 10:00:00 14,8 12,7 16,3 18 10 40 22 WSW 1022,5 - 0,0
18.06.2018 09:00:00 14,4 13,6 16,2 14 8 39 21 WSW 1022,0 - 0,0
18.06.2018 08:00:00 14,3 13,2 16,0 16 9 39 21 W 1021,6 20 0,0
18.06.2018 07:00:00 14,3 13,2 15,8 25 13 40 22 W 1021,0 - 0,0
18.06.2018 06:00:00 14,6 13,8 15,9 19 11 36 19 W 1020,8 - 0,0
18.06.2018 05:00:00 15,0 14,4 15,7 16 9 32 17 WSW 1020,5 - 0,4
18.06.2018 04:00:00 15,2 14,6 15,9 10 6 32 17 SW 1020,3 - 0,4
18.06.2018 03:00:00 15,6 14,0 16,1 12 6 30 16 SW 1020,1 - 0,0
18.06.2018 02:00:00 16,0 13,3 16,3 9 5 34 18 S 1020,2 20 0,0
18.06.2018 01:00:00 16,1 13,0 16,5 10 5 29 16 ESE 1020,3 - 0,0
18.06.2018 00:00:00 16,2 13,5 16,4 9 5 42 23 SSW 1020,5 - 0,0
17.06.2018 23:00:00 16,3 12,8 16,4 11 6 40 22 SE 1020,5 20 0,0
17.06.2018 22:00:00 16,5 12,6 16,7 15 8 46 25 SW 1020,1 - 0,0
17.06.2018 21:00:00 16,7 10,8 18,0 10 5 18 10 SSW 1020,0 - 0,0
17.06.2018 20:00:00 17,0 9,9 20,0 5 3 10 5 SW 1020,0 20 0,0
17.06.2018 19:00:00 16,6 9,8 21,3 4 2 14 7 WNW 1020,1 - 0,0
17.06.2018 18:00:00 17,1 9,5 24,1 4 2 14 8 W 1019,9 - 0,0
17.06.2018 17:00:00 17,0 11,0 26,5 9 5 16 9 NW 1020,2 20 0,0
17.06.2018 16:00:00 17,9 11,5 30,3 12 6 23 12 W 1020,2 - 0,0
17.06.2018 15:00:00 17,6 11,6 26,3 9 5 16 9 W 1020,2 - 0,0
17.06.2018 14:00:00 16,9 10,7 22,9 12 6 27 15 WSW 1020,4 20 0,0
17.06.2018 13:00:00 16,4 10,7 21,3 16 9 31 17 WSW 1020,5 - 0,0
17.06.2018 12:00:00 16,3 11,4 18,2 14 8 35 19 WSW 1020,2 - 0,0
17.06.2018 11:00:00 14,8 10,8 17,1 16 9 35 19 SW 1020,1 20 0,0
17.06.2018 10:00:00 14,1 10,7 16,5 20 11 39 21 WSW 1020,1 - 0,0
17.06.2018 09:00:00 14,0 10,4 14,7 17 9 37 20 WSW 1019,6 - 0,0
17.06.2018 08:00:00 13,6 10,2 14,7 15 8 38 20 SW 1019,2 - 0,0
17.06.2018 07:00:00 13,5 10,1 13,8 16 9 40 21 WSW 1018,9 - 0,0
17.06.2018 06:00:00 13,4 10,0 14,2 14 8 35 19 WSW 1018,5 - 0,0
17.06.2018 05:00:00 13,3 10,5 13,9 13 7 41 22 WSW 1018,6 20 0,0
17.06.2018 04:00:00 13,3 10,1 14,0 25 14 44 24 W 1018,6 - 0,0
17.06.2018 03:00:00 13,4 9,6 14,1 29 16 46 25 W 1018,6 - 0,0
17.06.2018 02:00:00 13,7 9,5 14,4 29 15 43 23 W 1018,6 - 0,0
17.06.2018 01:00:00 13,8 8,8 14,4 23 12 43 23 W 1018,5 - 0,0
17.06.2018 00:00:00 14,3 11,4 15,8 23 12 45 24 W 1018,3 - 0,0
16.06.2018 23:00:00 14,5 11,1 15,9 28 15 45 24 W 1017,8 20 0,0
16.06.2018 22:00:00 14,8 11,0 16,5 13 7 39 21 WNW 1017,5 - 0,0
16.06.2018 21:00:00 15,2 12,0 17,6 8 5 - - WNW 1017,5 - 0,0
16.06.2018 20:00:00 16,3 10,6 18,9 8 4 14 7 NW 1017,5 20 0,0
16.06.2018 19:00:00 16,5 10,3 21,2 4 2 13 7 WNW 1017,0 - 0,0
16.06.2018 18:00:00 17,5 10,8 24,7 7 4 20 11 WNW 1017,3 - 0,0
16.06.2018 17:00:00 18,9 10,7 29,1 13 7 19 10 W 1017,0 20 0,0
16.06.2018 16:00:00 17,7 10,1 27,8 10 5 20 11 WNW 1017,1 - 0,0
16.06.2018 15:00:00 17,5 11,3 26,9 9 5 16 9 WNW 1017,3 - 0,0
16.06.2018 14:00:00 16,4 10,9 24,3 6 3 12 7 W 1017,2 20 0,0
16.06.2018 13:00:00 16,4 11,5 23,0 7 4 17 9 W 1017,7 - 0,0
16.06.2018 12:00:00 15,7 11,5 20,0 8 5 21 11 SW 1017,8 - 0,0
16.06.2018 11:00:00 14,7 11,1 17,8 8 4 26 14 SW 1017,6 20 0,0
16.06.2018 10:00:00 14,7 10,9 16,0 6 4 26 14 SW 1017,8 - 0,0
16.06.2018 09:00:00 13,7 10,9 14,6 8 5 21 11 SW 1017,8 - 0,0
16.06.2018 08:00:00 13,2 10,6 13,9 6 3 19 11 SW 1017,4 20 0,0
16.06.2018 07:00:00 12,7 10,6 13,7 6 3 23 13 SW 1017,4 - 0,0
16.06.2018 06:00:00 12,6 10,5 13,7 9 5 27 15 WSW 1017,4 - 0,0
16.06.2018 05:00:00 12,7 10,2 13,7 5 3 18 10 E 1017,1 25 0,0
16.06.2018 04:00:00 13,0 10,5 13,9 6 4 22 12 SSW 1017,4 - 0,0
16.06.2018 03:00:00 13,2 10,6 13,3 9 5 20 11 WSW 1017,6 - 0,0
16.06.2018 02:00:00 13,1 9,7 13,3 8 4 20 11 NW 1017,9 - 0,0
16.06.2018 01:00:00 13,3 9,7 13,5 13 7 27 15 NW 1018,1 - 0,0
16.06.2018 00:00:00 13,1 9,5 13,6 11 6 22 12 NW 1018,2 - 0,0
15.06.2018 23:00:00 13,2 9,3 14,1 11 6 19 11 NNW 1018,5 25 0,0
15.06.2018 22:00:00 13,4 8,0 15,4 9 5 19 10 NNW 1018,4 - 0,0
15.06.2018 21:00:00 13,9 8,3 17,5 9 5 21 11 NNW 1018,4 - 0,0
15.06.2018 20:00:00 14,2 9,4 20,0 10 5 18 10 NNW 1018,2 18 0,0
15.06.2018 19:00:00 15,4 10,2 25,0 12 6 21 12 NNW 1018,5 - 0,0
15.06.2018 18:00:00 15,7 10,2 28,9 15 8 26 14 NNW 1018,8 - 0,0
15.06.2018 17:00:00 16,5 8,9 32,1 12 6 23 12 N 1018,6 18 0,0
15.06.2018 16:00:00 16,2 9,1 34,6 11 6 24 13 NNW 1018,8 - 0,0
15.06.2018 15:00:00 15,5 11,3 33,2 14 8 21 12 N 1018,8 - 0,0
15.06.2018 14:00:00 15,8 12,0 30,0 10 6 18 10 WNW 1019,1 12 0,0
15.06.2018 13:00:00 15,4 11,6 26,0 8 5 16 8 W 1018,8 - 0,0
15.06.2018 12:00:00 15,4 11,6 22,7 10 5 19 10 WNW 1018,8 - 0,0
15.06.2018 11:00:00 15,1 11,7 19,3 11 6 16 9 NW 1018,7 8 0,0
15.06.2018 10:00:00 14,4 11,5 17,6 8 4 15 8 WNW 1018,3 - 0,0
15.06.2018 09:00:00 14,6 11,7 14,9 6 3 - - WNW 1018,3 - 0,0
15.06.2018 08:00:00 13,2 11,8 13,4 9 5 - - W 1018,0 15 0,0
15.06.2018 07:00:00 12,7 11,6 13,3 5 3 18 10 WNW 1017,6 - 0,0
15.06.2018 06:00:00 12,6 11,3 13,6 9 5 - - W 1017,4 - 0,0
15.06.2018 05:00:00 12,6 11,3 13,2 11 6 21 11 W 1017,5 15 0,0
15.06.2018 04:00:00 12,6 11,3 13,2 9 5 20 11 WSW 1017,4 - 0,0
15.06.2018 03:00:00 12,8 11,4 13,5 10 5 23 12 W 1017,7 - 0,0
15.06.2018 02:00:00 13,1 11,3 13,5 8 4 22 12 WSW 1017,6 - 0,0
15.06.2018 01:00:00 13,4 11,6 13,2 6 4 19 10 SSW 1017,7 - 0,0
15.06.2018 00:00:00 13,4 10,6 13,5 5 3 19 11 WNW 1017,8 - 0,0
14.06.2018 23:00:00 14,1 10,5 14,5 12 7 28 15 NW 1018,0 - 0,0
14.06.2018 22:00:00 14,4 10,6 15,1 14 8 26 14 NW 1017,3 - 0,0
14.06.2018 21:00:00 14,9 10,5 16,4 12 7 - - NW 1016,9 - 0,0
14.06.2018 20:00:00 15,4 12,2 18,0 13 7 24 13 NW 1016,5 - 0,0
14.06.2018 19:00:00 15,9 12,8 19,0 12 6 27 15 WNW 1016,2 - 0,0
14.06.2018 18:00:00 16,7 13,2 19,3 19 10 32 17 W 1015,8 - 0,0
14.06.2018 17:00:00 15,6 14,0 17,8 21 11 34 18 W 1015,8 10 0,2
14.06.2018 16:00:00 15,7 14,4 17,1 17 9 34 18 WSW 1015,4 - 0,0
14.06.2018 15:00:00 15,6 14,3 16,5 10 6 29 16 SSW 1015,3 - 0,0
14.06.2018 14:00:00 15,3 14,0 16,2 9 5 27 15 SSW 1015,7 - 0,2
14.06.2018 13:00:00 15,7 12,6 17,1 9 5 31 17 SSE 1015,6 - 0,0
14.06.2018 12:00:00 16,2 11,8 19,9 12 6 31 17 SW 1015,0 - 0,0
14.06.2018 11:00:00 16,0 11,6 17,0 14 7 32 17 SW 1015,2 20 0,0
14.06.2018 10:00:00 14,9 11,7 14,9 11 6 37 20 SSE 1015,4 - 0,0
14.06.2018 09:00:00 14,2 11,7 14,7 10 5 31 17 SW 1015,8 - 0,0
14.06.2018 08:00:00 14,2 11,2 14,9 8 5 26 14 E 1015,5 18 0,0
14.06.2018 07:00:00 14,2 11,4 14,8 6 4 18 10 ENE 1015,3 - 0,0
14.06.2018 06:00:00 14,1 11,6 14,6 6 3 22 12 ESE 1015,6 - 0,0
14.06.2018 05:00:00 13,9 11,6 14,6 8 4 28 15 SW 1015,8 25 0,0
14.06.2018 04:00:00 14,3 12,2 14,5 6 3 24 13 NE 1016,4 - 0,0
14.06.2018 03:00:00 15,0 11,2 14,5 8 4 22 12 SSW 1016,8 - 0,0
14.06.2018 02:00:00 15,6 10,6 14,4 12 7 22 12 S 1017,4 25 0,0
14.06.2018 01:00:00 15,9 10,0 13,7 10 5 15 8 ESE 1017,5 - 0,0
14.06.2018 00:00:00 15,5 5,7 13,2 6 3 8 4 SE 1018,2 - 0,0
13.06.2018 23:00:00 15,3 7,6 12,9 3 2 6 3 S 1018,3 20 0,0
13.06.2018 22:00:00 15,6 6,8 15,1 4 2 - - SE 1018,2 - 0,0
13.06.2018 21:00:00 16,2 7,4 17,0 5 3 7 4 SSE 1018,3 - 0,0
13.06.2018 20:00:00 15,9 8,1 21,3 7 4 17 9 N 1018,5 25 0,0

tt = Température de l'air
td = dewpoint
tt 5cm = Température de l'air 5cm
ff = Vitesse du vent
fx = gusts
dd = Direction du vent
ppp = reduced air pressure
vv = visibility
rr = Quantités de précipitations

stations d'obs. à proximité